Weather History for NFFN - February, 2013

Change the Weather History Date:

Saturday, February 16, 2013

  Actual Average Record
Temperature  
Mean Temperature 80 °F -  
Max Temperature 89 °F 86 °F 93 °F (2005)
Min Temperature 71 °F 73 °F 71 °F (2012)
Cooling Degree Days 15    
Growing Degree Days 30 (Base 50)    
Moisture  
Dew Point 75 °F    
Average Humidity 86    
Maximum Humidity 100    
Minimum Humidity 59    
Precipitation  
Precipitation 0.08 in 0.41 in - ()
Sea Level Pressure  
Sea Level Pressure 29.79 in    
Wind  
Wind Speed 4 mph ()    
Max Wind Speed 14 mph    
Max Gust Speed -    
Visibility 11.8 miles    
Events Rain , Thunderstorm    
Averages and records for this station are not official NWS values.
T = Trace of Precipitation, MM = Missing Value Source: Averaged Metar Reports

Daily Weather History Graph

Daily Weather History Graph

Search for Another Location

Airport or City:

Trip Planner

Search our weather history database for the weather conditions in past years. The results will help you decide how hot, cold, wet, or windy it might be!

Date:

Astronomy

Feb. 16, 2013 Rise Set
Actual Time 6:04 AM FJT 6:43 PM FJT
Civil Twilight 5:42 AM FJT 7:06 PM FJT
Nautical Twilight 5:15 AM FJT 7:32 PM FJT
Astronomical Twilight 4:49 AM FJT 7:58 PM FJT
Moon 11:00 AM FJT (2/16) 10:40 PM FJT (2/16)
Length of Visible Light 13h 24m
Length of Day
12h 39m
Waxing Crescent, 33% of the Moon is Illuminated
Feb 16
Waxing Crescent
Feb 18
First Quarter
Feb 26
Full
Mar 5
Last Quarter
Mar 12
New

Hourly Weather History & Observations

Time (FJT) Temp. Heat Index Dew Point Humidity Pressure Visibility Wind Dir Wind Speed Gust Speed Precip Events Conditions
12:00 AM 76 °F - 74 °F 94% 29.84 in 12 mi Calm Calm - -   Partly Cloudy
12:00 AM 75.2 °F - 75.2 °F 100% 29.83 in 24.9 mi Calm Calm - N/A   Scattered Clouds
1:00 AM 75.2 °F - 73.4 °F 94% 29.80 in 24.9 mi ESE 8.1 mph - N/A   Scattered Clouds
2:00 AM 75.2 °F - 73.4 °F 94% 29.80 in 24.9 mi SSE 8.1 mph - N/A   Scattered Clouds
3:00 AM 76 °F - 74 °F 91% 29.78 in 12 mi SSE 4.6 mph - -   Partly Cloudy
3:00 AM 77.0 °F - 73.4 °F 89% 29.77 in 24.9 mi SSE 4.6 mph - N/A   Mostly Cloudy
4:00 AM 77.0 °F - 73.4 °F 89% 29.77 in 24.9 mi Calm Calm - N/A   Mostly Cloudy
5:00 AM 77.0 °F - 75.2 °F 94% 29.77 in 24.9 mi Calm Calm - N/A   Mostly Cloudy
6:00 AM 75 °F - 73 °F 91% 29.79 in 12 mi Calm Calm - -   Partly Cloudy
6:00 AM 75.2 °F - 73.4 °F 94% 29.77 in 28.0 mi Calm Calm - N/A   Mostly Cloudy
7:00 AM 77.0 °F - 73.4 °F 89% 29.80 in 31.1 mi Calm Calm - N/A   Mostly Cloudy
8:00 AM 77.0 °F - 73.4 °F 89% 29.83 in 31.1 mi Calm Calm - N/A   Mostly Cloudy
9:00 AM 82 °F - 76 °F 76% 29.82 in 31 mi South 3.5 mph - -   Partly Cloudy
9:00 AM 82.4 °F 89.5 °F 75.2 °F 79% 29.80 in 31.1 mi South 3.5 mph - N/A   Scattered Clouds
10:00 AM 84.2 °F 90.9 °F 73.4 °F 70% 29.80 in 31.1 mi SW 6.9 mph - N/A   Mostly Cloudy
11:00 AM 86.0 °F 95.1 °F 75.2 °F 70% 29.77 in 31.1 mi WSW 6.9 mph - N/A   Scattered Clouds
12:00 PM 89 °F - 77 °F 59% 29.78 in 31 mi West 11.5 mph - -   Partly Cloudy
12:00 PM 89.6 °F 102.2 °F 77.0 °F 66% 29.77 in 31.1 mi West 11.5 mph - N/A   Mostly Cloudy
1:00 PM 87.8 °F 95.6 °F 73.4 °F 62% 29.77 in 31.1 mi West 11.5 mph - N/A   Mostly Cloudy
2:00 PM 87.8 °F 99.7 °F 77.0 °F 70% 29.74 in 31.1 mi West 13.8 mph - N/A   Mostly Cloudy
3:00 PM 84 °F - 77 °F 73% 29.80 in 12 mi ENE 13.8 mph - - Rain Light Rain
3:00 PM 84.2 °F 94.1 °F 77.0 °F 79% 29.80 in 18.6 mi ENE 13.8 mph - N/A Rain Light Rain
3:35 PM 84.2 °F 94.1 °F 77.0 °F 79% 29.77 in 9.3 mi NNW 6.9 mph - N/A Rain , Thunderstorm Light Thunderstorms and Rain
4:00 PM 78.8 °F - 75.2 °F 89% 29.77 in 12.4 mi NNE 5.8 mph - N/A Rain , Thunderstorm Light Thunderstorms and Rain
5:00 PM 77.0 °F - 75.2 °F 94% 29.77 in 6.2 mi ENE 6.9 mph - N/A Rain Light Rain
6:00 PM 77 °F - 76 °F 95% 29.79 in 12 mi ENE 5.8 mph - -   Partly Cloudy
6:00 PM 77.0 °F - 75.2 °F 94% 29.77 in 24.9 mi ENE 5.8 mph - N/A   Mostly Cloudy
7:00 PM 77.0 °F - 75.2 °F 94% 29.80 in 24.9 mi Calm Calm - N/A Rain Light Rain
8:00 PM 78.8 °F - 77.0 °F 94% 29.80 in 24.9 mi East 6.9 mph - N/A   Mostly Cloudy
9:00 PM 77 °F - 76 °F 94% 29.82 in 12 mi ESE 6.9 mph - -   Partly Cloudy
9:00 PM 77.0 °F - 75.2 °F 94% 29.80 in 24.9 mi ESE 6.9 mph - N/A   Scattered Clouds
10:00 PM 77.0 °F - 75.2 °F 94% 29.83 in 24.9 mi ESE 6.9 mph - N/A   Mostly Cloudy
11:00 PM 77.0 °F - 75.2 °F 94% 29.83 in 24.9 mi Calm Calm - N/A   Mostly Cloudy